This is the latest recevied weather packets stored in our database for station/object BM1CKC-10. If no packets are shown the sender has not sent any weather packets the latest 10 day(s).
| Time | Temp. | Humidity | Pressure | Rain* | Wind** | Luminosity | Snow |
|---|---|---|---|---|---|---|---|
| 1777847399 | 23.89° C | 55% | 1012.2 hPa | - | - | - | - |
| 1777846199 | 23.89° C | 57% | 1011.8 hPa | - | - | - | - |
| 1777844999 | 23.89° C | 51% | 1011.4 hPa | - | - | - | - |
| 1777843799 | 25° C | 59% | 1011 hPa | - | - | - | - |
| 1777842599 | 25° C | 60% | 1010.3 hPa | - | - | - | - |
| 1777841399 | 25.56° C | 57% | 1010.4 hPa | - | - | - | - |
| 1777840199 | 25.56° C | 59% | 1010.1 hPa | - | - | - | - |
| 1777838999 | 25.56° C | 55% | 1009.6 hPa | - | - | - | - |
| 1777837798 | 25.56° C | 59% | 1009.5 hPa | - | - | - | - |
| 1777836598 | 25° C | 57% | 1009.2 hPa | - | - | - | - |
| 1777835398 | 25° C | 58% | 1008.9 hPa | - | - | - | - |
| 1777834198 | 25.56° C | 57% | 1008.8 hPa | - | - | - | - |
| 1777832998 | 25° C | 56% | 1009 hPa | - | - | - | - |
| 1777831798 | 25.56° C | 57% | 1008.7 hPa | - | - | - | - |
| 1777830598 | 25° C | 59% | 1008.9 hPa | - | - | - | - |
| 1777829399 | 25.56° C | 59% | 1008.7 hPa | - | - | - | - |
| 1777828199 | 25.56° C | 58% | 1008.8 hPa | - | - | - | - |
| 1777826998 | 25.56° C | 57% | 1008.8 hPa | - | - | - | - |
| 1777825798 | 25° C | 59% | 1008.6 hPa | - | - | - | - |
| 1777824599 | 25.56° C | 57% | 1008.8 hPa | - | - | - | - |
| 1777823398 | 26.11° C | 56% | 1008.7 hPa | - | - | - | - |
| 1777822198 | 25.56° C | 57% | 1008.4 hPa | - | - | - | - |
| 1777820998 | 25° C | 56% | 1008.3 hPa | - | - | - | - |
| 1777819798 | 25.56° C | 54% | 1007.9 hPa | - | - | - | - |
| 1777818598 | 26.11° C | 48% | 1007.3 hPa | - | - | - | - |
* Rain since midnight (hover to see other rain measurements)
** Current wind speed in m/s (hover to see current wind gust speed)